Tracking 30995 objects as of 5-Jul-2025
HD Live streaming from Space Station
objects crossing your sky now

HULIANWANG DIGUI-04

Track HULIANWANG DIGUI-04 now!
10-day predictions


NORAD ID: 62326
Int'l Code: 2024-240D
Perigee: 1,173.3 km
Apogee: 1,176.8 km
Inclination: 86.5 °
Period: 108.7 minutes
Semi major axis: 7546 km
RCS: Unknown
Launch date: December 16, 2024
Source: People's Republic of China (PRC)
Launch site: Wenchang Satellite Launch Center (WSC)
Your satellite tracking list
DELTA 1 DEB
Track 1 satellite(s)




NASA's NSSDC Master Catalog

Two Line Element Set (TLE):
1 62326U 24240D   25186.59546875  .00000016  00000-0  31627-5 0  9993
2 62326  86.4968 100.1882 0002291  74.2980 285.8406 13.24417516 26764
Source of the keplerian elements: AFSPC